TSC384 CYUL-LEMD

Flight info

Callsign TSC384
Flight time 6h 40m
Altitude 31000
Route ANTEG DCT OBRON DCT MOBUB DCT EBMOS DCT IMORI DCT KITOP DCT ANCER N749A LOMSI/M078F310 DCT 55N050W 55N040W 53N030W 50N020W 47N015W DCT BERUX/N0455F310 DCT STG DCT DESAT/N0453F360 N733 ZMR/N0452F350
Aircraft A21N/M-SDE3FGHIRWY/LB1

Departure

Time 2026-05-07 11:38
Airport Montreal / Pierre Elliott Trudeau International Airport (CYUL)

Arrival

Time 2026-05-07 18:18
Airport Adolfo Suárez Madrid–Barajas Airport (LEMD)
Time Latitude Longitude Altitude Speed Heading
2026-05-07 10:43 45.45734 -73.75378 127 ft 0 kts 105°
2026-05-07 11:19 45.45738 -73.75398 127 ft 2 kts 104°
2026-05-07 11:20 45.45742 -73.75419 127 ft 2 kts 105°
2026-05-07 11:20 45.45745 -73.75438 127 ft 2 kts 83°
2026-05-07 11:20 45.45739 -73.75458 127 ft 2 kts 51°
2026-05-07 11:20 45.45729 -73.75469 127 ft 1 kts 25°
2026-05-07 11:21 45.45716 -73.75475 127 ft 2 kts 18°
2026-05-07 11:21 45.45702 -73.75483 127 ft 2 kts 22°
2026-05-07 11:21 45.45692 -73.75489 127 ft 1 kts 20°
2026-05-07 11:21 45.45688 -73.75491 127 ft 0 kts 24°
2026-05-07 11:22 45.45689 -73.75491 126 ft 0 kts 24°
2026-05-07 11:23 45.45689 -73.75490 126 ft 0 kts 24°
2026-05-07 11:24 45.45698 -73.75485 127 ft 2 kts 24°
2026-05-07 11:24 45.45718 -73.75477 126 ft 3 kts
2026-05-07 11:24 45.45747 -73.75487 127 ft 4 kts 332°
2026-05-07 11:24 45.45760 -73.75524 126 ft 4 kts 272°
2026-05-07 11:25 45.45755 -73.75575 127 ft 5 kts 256°
2026-05-07 11:25 45.45744 -73.75629 126 ft 5 kts 252°
2026-05-07 11:25 45.45731 -73.75684 126 ft 6 kts 251°
2026-05-07 11:25 45.45720 -73.75744 126 ft 6 kts 262°
2026-05-07 11:26 45.45721 -73.75809 126 ft 6 kts 274°
2026-05-07 11:26 45.45726 -73.75877 126 ft 8 kts 276°
2026-05-07 11:26 45.45739 -73.75960 126 ft 8 kts 296°
2026-05-07 11:26 45.45785 -73.76017 127 ft 9 kts 339°
2026-05-07 11:27 45.45847 -73.76038 126 ft 9 kts 348°
2026-05-07 11:27 45.45916 -73.76052 126 ft 10 kts 356°
2026-05-07 11:27 45.45987 -73.76058 126 ft 10 kts 357°
2026-05-07 11:27 45.46063 -73.76062 126 ft 11 kts
2026-05-07 11:28 45.46121 -73.76003 126 ft 11 kts 74°
2026-05-07 11:28 45.46125 -73.75883 127 ft 12 kts 88°
2026-05-07 11:28 45.46128 -73.75754 126 ft 13 kts 88°
2026-05-07 11:28 45.46132 -73.75623 126 ft 13 kts 87°
2026-05-07 11:29 45.46137 -73.75486 126 ft 14 kts 87°
2026-05-07 11:29 45.46141 -73.75344 126 ft 14 kts 88°
2026-05-07 11:29 45.46144 -73.75201 127 ft 14 kts 88°
2026-05-07 11:29 45.46148 -73.75053 127 ft 15 kts 87°
2026-05-07 11:30 45.46154 -73.74902 127 ft 15 kts 86°
2026-05-07 11:30 45.46159 -73.74749 127 ft 15 kts 87°
2026-05-07 11:30 45.46155 -73.74596 126 ft 15 kts 111°
2026-05-07 11:30 45.46125 -73.74455 127 ft 15 kts 87°
2026-05-07 11:31 45.46135 -73.74304 127 ft 15 kts 85°
2026-05-07 11:31 45.46141 -73.74152 127 ft 15 kts 87°
2026-05-07 11:31 45.46166 -73.74017 127 ft 14 kts 54°
2026-05-07 11:31 45.46239 -73.73926 127 ft 14 kts 40°
2026-05-07 11:32 45.46392 -73.73727 126 ft 15 kts 42°
2026-05-07 11:32 45.46471 -73.73624 127 ft 15 kts 42°
2026-05-07 11:32 45.46551 -73.73521 127 ft 15 kts 42°
2026-05-07 11:33 45.46634 -73.73415 126 ft 16 kts 41°
2026-05-07 11:33 45.46715 -73.73307 127 ft 16 kts 43°
2026-05-07 11:33 45.46799 -73.73195 127 ft 16 kts 43°
2026-05-07 11:33 45.46883 -73.73084 127 ft 16 kts 43°
2026-05-07 11:34 45.46968 -73.72973 126 ft 16 kts 42°
2026-05-07 11:34 45.47055 -73.72862 126 ft 16 kts 42°
2026-05-07 11:34 45.47143 -73.72749 126 ft 17 kts 41°
2026-05-07 11:34 45.47230 -73.72636 126 ft 17 kts 43°
2026-05-07 11:35 45.47314 -73.72517 127 ft 17 kts 45°
2026-05-07 11:35 45.47400 -73.72401 126 ft 17 kts 41°
2026-05-07 11:35 45.47489 -73.72288 126 ft 17 kts 41°
2026-05-07 11:35 45.47584 -73.72164 126 ft 19 kts 43°
2026-05-07 11:36 45.47683 -73.72033 126 ft 19 kts 42°
2026-05-07 11:36 45.47774 -73.71915 127 ft 14 kts 42°
2026-05-07 11:36 45.47822 -73.71838 127 ft 9 kts 74°
2026-05-07 11:36 45.47786 -73.71763 127 ft 9 kts 135°
2026-05-07 11:37 45.47737 -73.71693 127 ft 10 kts 136°
2026-05-07 11:37 45.47680 -73.71645 127 ft 9 kts 183°
2026-05-07 11:37 45.47628 -73.71699 127 ft 9 kts 221°
2026-05-07 11:37 45.47470 -73.71909 127 ft 63 kts 222°
2026-05-07 11:38 45.46989 -73.72536 127 ft 122 kts 223°
2026-05-07 11:38 45.46236 -73.73521 137 ft 169 kts 224°
2026-05-07 11:38 45.45332 -73.74708 604 ft 177 kts 225°
2026-05-07 11:38 45.44466 -73.75879 1363 ft 174 kts 226°
2026-05-07 11:39 45.43627 -73.77063 2117 ft 169 kts 229°
2026-05-07 11:39 45.42797 -73.78236 2674 ft 169 kts 229°
2026-05-07 11:39 45.42036 -73.79459 3217 ft 166 kts 244°
2026-05-07 11:39 45.41756 -73.81003 3706 ft 164 kts 274°
2026-05-07 11:40 45.42134 -73.82525 4175 ft 168 kts 304°
2026-05-07 11:40 45.43076 -73.83562 4611 ft 180 kts 333°
2026-05-07 11:40 45.44348 -73.83781 5047 ft 194 kts
2026-05-07 11:40 45.45622 -73.83048 5478 ft 208 kts 30°
2026-05-07 11:41 45.46793 -73.81774 5895 ft 215 kts 32°
2026-05-07 11:41 45.48009 -73.80508 6376 ft 218 kts 31°
2026-05-07 11:41 45.49246 -73.79267 6870 ft 220 kts 30°
2026-05-07 11:41 45.50542 -73.78137 7261 ft 223 kts 15°
2026-05-07 11:42 45.52086 -73.77788 7550 ft 228 kts 358°
2026-05-07 11:42 45.53699 -73.77299 7754 ft 254 kts 21°
2026-05-07 11:42 45.55280 -73.75922 8039 ft 274 kts 33°
2026-05-07 11:42 45.56809 -73.74212 8354 ft 290 kts 36°
2026-05-07 11:43 45.58385 -73.72369 8840 ft 297 kts 36°
2026-05-07 11:43 45.60005 -73.70483 9466 ft 300 kts 36°
2026-05-07 11:43 45.61631 -73.68614 10072 ft 303 kts 36°
2026-05-07 11:43 45.63300 -73.66709 10495 ft 312 kts 36°
2026-05-07 11:44 45.65015 -73.64764 10766 ft 326 kts 36°
2026-05-07 11:44 45.66844 -73.62695 11039 ft 341 kts 36°
2026-05-07 11:44 45.68729 -73.60561 11313 ft 355 kts 36°
2026-05-07 11:44 45.70691 -73.58343 11581 ft 368 kts 36°
2026-05-07 11:45 45.72751 -73.56012 11842 ft 381 kts 36°
2026-05-07 11:45 45.74867 -73.53612 12095 ft 394 kts 36°
2026-05-07 11:45 45.77049 -73.51138 12322 ft 407 kts 36°
2026-05-07 11:45 45.79281 -73.48601 12543 ft 418 kts 37°
2026-05-07 11:46 45.81573 -73.45992 12844 ft 427 kts 36°
2026-05-07 11:46 45.83902 -73.43340 13293 ft 431 kts 37°
2026-05-07 11:46 45.86205 -73.40574 13741 ft 436 kts 40°
2026-05-07 11:46 45.88410 -73.37551 14147 ft 442 kts 44°
2026-05-07 11:47 45.90551 -73.34320 14587 ft 446 kts 46°
2026-05-07 11:47 45.92660 -73.31056 15028 ft 449 kts 47°
2026-05-07 11:47 45.94780 -73.27774 15465 ft 453 kts 47°
2026-05-07 11:47 45.96943 -73.24438 15888 ft 456 kts 46°
2026-05-07 11:48 45.99107 -73.21107 16328 ft 458 kts 47°
2026-05-07 11:48 46.01284 -73.17756 16704 ft 463 kts 47°
2026-05-07 11:48 46.03493 -73.14356 17060 ft 467 kts 47°
2026-05-07 11:48 46.05711 -73.10934 17446 ft 470 kts 47°
2026-05-07 11:49 46.07937 -73.07501 17835 ft 473 kts 47°
2026-05-07 11:49 46.10182 -73.04026 18203 ft 476 kts 47°
2026-05-07 11:49 46.12413 -73.00568 18554 ft 479 kts 47°
2026-05-07 11:49 46.14701 -72.97006 18878 ft 482 kts 48°
2026-05-07 11:50 46.16863 -72.93312 19196 ft 485 kts 52°
2026-05-07 11:50 46.18831 -72.89426 19537 ft 486 kts 57°
2026-05-07 11:50 46.20638 -72.85307 19873 ft 488 kts 60°
2026-05-07 11:50 46.22388 -72.81093 20147 ft 492 kts 60°
2026-05-07 11:51 46.24133 -72.76837 20432 ft 495 kts 60°
2026-05-07 11:51 46.25891 -72.72555 20743 ft 497 kts 60°
2026-05-07 11:51 46.27662 -72.68249 21075 ft 499 kts 60°
2026-05-07 11:51 46.29438 -72.63940 21366 ft 501 kts 60°
2026-05-07 11:52 46.31206 -72.59656 21647 ft 504 kts 60°
2026-05-07 11:52 46.33004 -72.55290 21930 ft 506 kts 60°
2026-05-07 11:52 46.34803 -72.50919 22179 ft 510 kts 60°
2026-05-07 11:52 46.36607 -72.46531 22488 ft 510 kts 60°
2026-05-07 11:53 46.38433 -72.42084 22885 ft 510 kts 60°
2026-05-07 11:53 46.40216 -72.37731 23252 ft 509 kts 60°
2026-05-07 11:53 46.42017 -72.33329 23635 ft 509 kts 61°
2026-05-07 11:53 46.43835 -72.28882 24014 ft 508 kts 61°
2026-05-07 11:54 46.45614 -72.24522 24426 ft 505 kts 61°
2026-05-07 11:54 46.47380 -72.20179 24793 ft 504 kts 61°
2026-05-07 11:54 46.49168 -72.15777 25097 ft 504 kts 61°
2026-05-07 11:54 46.50936 -72.11424 25416 ft 504 kts 62°
2026-05-07 11:55 46.52698 -72.07072 25767 ft 502 kts 61°
2026-05-07 11:55 46.54458 -72.02717 26072 ft 501 kts 62°
2026-05-07 11:55 46.56220 -71.98354 26336 ft 502 kts 61°
2026-05-07 11:55 46.57974 -71.94000 26596 ft 502 kts 61°
2026-05-07 11:56 46.59737 -71.89623 26889 ft 502 kts 61°
2026-05-07 11:56 46.61496 -71.85249 27201 ft 500 kts 61°
2026-05-07 11:56 46.63238 -71.80907 27460 ft 501 kts 61°
2026-05-07 11:56 46.64986 -71.76549 27710 ft 501 kts 61°
2026-05-07 11:57 46.66737 -71.72172 27999 ft 500 kts 61°
2026-05-07 11:57 46.68501 -71.67797 28278 ft 500 kts 60°
2026-05-07 11:57 46.70390 -71.63580 28518 ft 501 kts 56°
2026-05-07 11:57 46.72459 -71.59535 28756 ft 501 kts 52°
2026-05-07 11:58 46.74704 -71.55664 28979 ft 502 kts 49°
2026-05-07 11:58 46.77064 -71.51918 29188 ft 503 kts 45°
2026-05-07 11:58 46.79569 -71.48369 29378 ft 503 kts 41°
2026-05-07 11:58 46.82217 -71.45052 29563 ft 503 kts 38°
2026-05-07 11:59 46.84975 -71.41906 29724 ft 504 kts 36°
2026-05-07 11:59 46.87738 -71.38835 29881 ft 506 kts 36°
2026-05-07 11:59 46.90541 -71.35729 30058 ft 507 kts 36°
2026-05-07 11:59 46.93354 -71.32598 30234 ft 507 kts 37°
2026-05-07 12:00 46.96159 -71.29460 30381 ft 508 kts 37°
2026-05-07 12:00 46.98946 -71.26327 30508 ft 509 kts 37°
2026-05-07 12:00 47.01754 -71.23161 30669 ft 509 kts 37°
2026-05-07 12:01 47.07339 -71.16850 30701 ft 509 kts 37°
2026-05-07 12:01 47.12937 -71.10497 30730 ft 509 kts 37°
2026-05-07 12:02 47.18520 -71.04146 30721 ft 509 kts 37°
2026-05-07 12:02 47.24074 -70.97813 30725 ft 509 kts 37°
2026-05-07 12:03 47.29675 -70.91409 30718 ft 508 kts 38°
2026-05-07 12:03 47.35239 -70.85024 30710 ft 507 kts 38°
2026-05-07 12:04 47.40768 -70.78661 30703 ft 507 kts 38°
2026-05-07 12:04 47.46307 -70.72270 30713 ft 506 kts 38°
2026-05-07 12:05 47.51812 -70.65908 30725 ft 504 kts 38°
2026-05-07 12:05 47.57326 -70.59511 30724 ft 503 kts 39°
2026-05-07 12:06 47.62805 -70.53136 30734 ft 503 kts 39°
2026-05-07 12:06 47.68289 -70.46742 30741 ft 502 kts 39°
2026-05-07 12:07 47.73750 -70.40358 30749 ft 500 kts 39°
2026-05-07 12:07 47.79187 -70.33981 30733 ft 498 kts 40°
2026-05-07 12:08 47.84567 -70.27657 30721 ft 495 kts 40°
2026-05-07 12:08 47.89978 -70.21274 30721 ft 495 kts 40°
2026-05-07 12:09 47.95357 -70.14915 30722 ft 495 kts 40°
2026-05-07 12:09 48.00732 -70.08542 30714 ft 494 kts 40°
2026-05-07 12:10 48.06100 -70.02161 30717 ft 494 kts 40°
2026-05-07 12:10 48.11460 -69.95771 30706 ft 495 kts 40°
2026-05-07 12:11 48.16800 -69.89391 30705 ft 495 kts 40°
2026-05-07 12:11 48.22181 -69.82945 30703 ft 494 kts 40°
2026-05-07 12:12 48.27502 -69.76548 30705 ft 494 kts 40°
2026-05-07 12:12 48.32882 -69.70062 30710 ft 494 kts 40°
2026-05-07 12:13 48.38194 -69.63642 30701 ft 495 kts 40°
2026-05-07 12:13 48.43565 -69.57134 30706 ft 494 kts 40°
2026-05-07 12:14 48.48874 -69.50681 30708 ft 494 kts 40°
2026-05-07 12:14 48.54024 -69.43833 30706 ft 492 kts 47°
2026-05-07 12:15 48.58522 -69.36130 30704 ft 490 kts 55°
2026-05-07 12:15 48.62425 -69.27764 30703 ft 488 kts 59°
2026-05-07 12:16 48.66206 -69.19287 30715 ft 488 kts 59°
2026-05-07 12:16 48.69982 -69.10831 30701 ft 488 kts 59°
2026-05-07 12:17 48.73758 -69.02383 30708 ft 487 kts 59°
2026-05-07 12:17 48.77541 -68.93913 30719 ft 487 kts 59°
2026-05-07 12:18 48.81314 -68.85436 30725 ft 486 kts 59°
2026-05-07 12:18 48.85072 -68.76966 30732 ft 484 kts 59°
2026-05-07 12:19 48.88797 -68.68542 30733 ft 482 kts 59°
2026-05-07 12:19 48.92511 -68.60119 30710 ft 481 kts 59°
2026-05-07 12:20 48.96238 -68.51638 30711 ft 481 kts 59°
2026-05-07 12:20 48.99907 -68.43269 30708 ft 479 kts 59°
2026-05-07 12:21 49.03594 -68.34828 30710 ft 478 kts 60°
2026-05-07 12:21 49.07237 -68.26469 30712 ft 476 kts 60°
2026-05-07 12:22 49.10896 -68.18040 30702 ft 475 kts 61°
2026-05-07 12:22 49.14527 -68.09643 30704 ft 476 kts 61°
2026-05-07 12:23 49.18150 -68.01243 30706 ft 475 kts 61°
2026-05-07 12:23 49.21759 -67.92851 30697 ft 475 kts 61°
2026-05-07 12:24 49.25386 -67.84394 30697 ft 476 kts 61°
2026-05-07 12:24 49.29009 -67.75911 30696 ft 476 kts 61°
2026-05-07 12:25 49.32642 -67.67384 30691 ft 476 kts 62°
2026-05-07 12:25 49.36254 -67.58876 30688 ft 475 kts 62°
2026-05-07 12:26 49.39862 -67.50349 30679 ft 475 kts 62°
2026-05-07 12:26 49.43476 -67.41784 30678 ft 476 kts 62°
2026-05-07 12:27 49.47089 -67.33192 30674 ft 475 kts 63°
2026-05-07 12:27 49.50649 -67.24696 30677 ft 476 kts 63°
2026-05-07 12:28 49.54225 -67.16141 30670 ft 477 kts 63°
2026-05-07 12:28 49.57782 -67.07598 30665 ft 476 kts 63°
2026-05-07 12:29 49.61339 -66.99029 30667 ft 476 kts 63°
2026-05-07 12:29 49.64882 -66.90463 30664 ft 475 kts 64°
2026-05-07 12:30 49.68408 -66.81912 30662 ft 474 kts 64°
2026-05-07 12:30 49.71939 -66.73323 30659 ft 473 kts 64°
2026-05-07 12:31 49.75429 -66.64803 30659 ft 472 kts 63°
2026-05-07 12:31 49.78928 -66.56235 30659 ft 472 kts 63°
2026-05-07 12:32 49.82424 -66.47649 30660 ft 472 kts 63°
2026-05-07 12:32 49.85891 -66.39107 30652 ft 472 kts 64°
2026-05-07 12:33 49.91090 -66.26244 30638 ft 470 kts 64°
2026-05-07 12:33 49.94553 -66.17643 30634 ft 470 kts 64°
2026-05-07 12:34 49.97982 -66.09093 30629 ft 470 kts 64°
2026-05-07 12:34 50.01429 -66.00471 30623 ft 469 kts 64°
2026-05-07 12:35 50.04846 -65.91896 30620 ft 470 kts 64°
2026-05-07 12:35 50.08274 -65.83266 30614 ft 470 kts 64°
2026-05-07 12:36 50.11703 -65.74603 30615 ft 471 kts 64°
2026-05-07 12:36 50.15120 -65.65942 30618 ft 471 kts 64°
2026-05-07 12:37 50.18546 -65.57234 30621 ft 471 kts 64°
2026-05-07 12:37 50.21950 -65.48547 30604 ft 473 kts 64°
2026-05-07 12:38 50.25379 -65.39777 30609 ft 474 kts 64°
2026-05-07 12:38 50.28790 -65.31019 30605 ft 474 kts 65°
2026-05-07 12:39 50.32190 -65.22259 30589 ft 474 kts 64°
2026-05-07 12:39 50.35600 -65.13442 30579 ft 474 kts 64°
2026-05-07 12:40 50.38994 -65.04638 30582 ft 475 kts 65°
2026-05-07 12:40 50.42383 -64.95810 30576 ft 476 kts 64°
2026-05-07 12:41 50.45783 -64.86930 30577 ft 476 kts 65°
2026-05-07 12:41 50.49186 -64.78011 30563 ft 476 kts 64°
2026-05-07 12:42 50.52560 -64.69136 30562 ft 477 kts 64°
2026-05-07 12:42 50.55953 -64.60188 30558 ft 477 kts 65°
2026-05-07 12:43 50.59323 -64.51265 30565 ft 478 kts 64°
2026-05-07 12:43 50.62711 -64.42265 30564 ft 478 kts 64°
2026-05-07 12:44 50.66092 -64.33257 30556 ft 479 kts 65°
2026-05-07 12:44 50.69469 -64.24222 30557 ft 479 kts 65°
2026-05-07 12:45 50.72823 -64.15215 30562 ft 479 kts 65°
2026-05-07 12:45 50.76175 -64.06175 30555 ft 479 kts 65°
2026-05-07 12:46 50.79532 -63.97094 30553 ft 479 kts 65°
2026-05-07 12:46 50.82861 -63.88059 30550 ft 479 kts 65°
2026-05-07 12:47 50.86191 -63.78989 30542 ft 479 kts 65°
2026-05-07 12:47 50.89526 -63.69877 30529 ft 479 kts 65°
2026-05-07 12:48 50.92839 -63.60789 30536 ft 481 kts 65°
2026-05-07 12:48 50.96185 -63.51575 30531 ft 483 kts 65°
2026-05-07 12:49 50.99512 -63.42387 30528 ft 484 kts 65°
2026-05-07 12:49 51.02838 -63.33167 30540 ft 484 kts 66°
2026-05-07 12:50 51.06165 -63.23907 30544 ft 484 kts 66°
2026-05-07 12:50 51.09480 -63.14648 30536 ft 485 kts 66°
2026-05-07 12:51 51.12801 -63.05327 30524 ft 486 kts 65°
2026-05-07 12:51 51.16126 -62.95976 30526 ft 487 kts 65°
2026-05-07 12:52 51.19450 -62.86592 30533 ft 488 kts 66°
2026-05-07 12:52 51.22757 -62.77221 30544 ft 487 kts 65°
2026-05-07 12:53 51.26048 -62.67860 30549 ft 486 kts 65°
2026-05-07 12:53 51.29355 -62.58419 30558 ft 487 kts 65°
2026-05-07 12:54 51.32627 -62.49042 30566 ft 487 kts 65°
2026-05-07 12:54 51.35914 -62.39580 30573 ft 489 kts 65°
2026-05-07 12:55 51.39213 -62.30058 30579 ft 488 kts 66°
2026-05-07 12:55 51.42454 -62.20656 30577 ft 487 kts 66°
2026-05-07 12:56 51.45728 -62.11132 30578 ft 487 kts 66°
2026-05-07 12:56 51.48962 -62.01689 30585 ft 487 kts 66°
2026-05-07 12:57 51.52219 -61.92133 30587 ft 489 kts 66°
2026-05-07 12:57 51.55459 -61.82602 30595 ft 490 kts 66°
2026-05-07 12:58 51.58713 -61.72985 30602 ft 492 kts 66°
2026-05-07 12:58 51.61962 -61.63361 30602 ft 491 kts 66°
2026-05-07 12:59 51.65203 -61.53709 30610 ft 492 kts 66°
2026-05-07 12:59 51.68443 -61.44031 30611 ft 492 kts 66°
2026-05-07 13:00 51.71665 -61.34364 30613 ft 493 kts 67°
2026-05-07 13:00 51.74905 -61.24606 30621 ft 493 kts 66°
2026-05-07 13:01 51.78120 -61.14883 30617 ft 493 kts 66°
2026-05-07 13:01 51.81318 -61.05175 30615 ft 494 kts 67°
2026-05-07 13:02 51.84535 -60.95372 30624 ft 494 kts 66°
2026-05-07 13:02 51.87747 -60.85540 30625 ft 496 kts 66°
2026-05-07 13:03 51.90952 -60.75694 30637 ft 497 kts 66°
2026-05-07 13:03 51.94156 -60.65815 30648 ft 496 kts 67°
2026-05-07 13:04 51.97344 -60.55947 30659 ft 497 kts 66°
2026-05-07 13:04 52.00536 -60.46019 30667 ft 498 kts 66°
2026-05-07 13:05 52.03731 -60.36046 30672 ft 499 kts 66°
2026-05-07 13:05 52.06903 -60.26113 30673 ft 499 kts 67°
2026-05-07 13:06 52.10080 -60.16112 30840 ft 501 kts 67°
2026-05-07 13:06 52.11662 -60.11116 31059 ft 500 kts 68°
2026-05-07 13:06 52.13241 -60.06125 31306 ft 499 kts 67°
2026-05-07 13:07 52.14818 -60.01130 31532 ft 498 kts 67°
2026-05-07 13:07 52.16414 -59.96063 31734 ft 498 kts 68°
2026-05-07 13:07 52.17983 -59.91068 31923 ft 498 kts 68°
2026-05-07 13:07 52.19545 -59.86082 32089 ft 498 kts 67°
2026-05-07 13:08 52.21120 -59.81050 32281 ft 498 kts 67°
2026-05-07 13:08 52.22669 -59.76091 32424 ft 499 kts 68°
2026-05-07 13:08 52.24251 -59.71012 32573 ft 499 kts 68°
2026-05-07 13:08 52.25799 -59.66034 32711 ft 499 kts 68°
2026-05-07 13:09 52.28935 -59.55906 32714 ft 500 kts 68°
2026-05-07 13:09 52.32054 -59.45797 32728 ft 501 kts 68°
2026-05-07 13:10 52.35173 -59.35656 32732 ft 501 kts 68°
2026-05-07 13:10 52.38282 -59.25502 32732 ft 502 kts 68°
2026-05-07 13:11 52.41389 -59.15313 32733 ft 502 kts 68°
2026-05-07 13:11 52.44468 -59.05172 32734 ft 502 kts 69°
2026-05-07 13:12 52.47569 -58.94910 32736 ft 502 kts 69°
2026-05-07 13:12 52.50644 -58.84697 32738 ft 502 kts 69°
2026-05-07 13:13 52.53704 -58.74486 32753 ft 502 kts 69°
2026-05-07 13:13 52.56764 -58.64229 32753 ft 501 kts 68°
2026-05-07 13:14 52.59819 -58.53949 32762 ft 501 kts 68°
2026-05-07 13:14 52.62848 -58.43711 32767 ft 501 kts 68°
2026-05-07 13:15 52.65871 -58.33448 32773 ft 500 kts 69°
2026-05-07 13:15 52.68893 -58.23145 32778 ft 500 kts 69°
2026-05-07 13:16 52.71908 -58.12826 32788 ft 500 kts 69°
2026-05-07 13:16 52.74882 -58.02596 32786 ft 499 kts 69°
2026-05-07 13:17 52.77870 -57.92277 32805 ft 499 kts 69°
2026-05-07 13:17 52.80845 -57.81957 32792 ft 499 kts 69°
2026-05-07 13:18 52.83809 -57.71629 32793 ft 499 kts 69°
2026-05-07 13:18 52.86749 -57.61340 32791 ft 498 kts 69°
2026-05-07 13:19 52.89692 -57.51001 32804 ft 498 kts 69°
2026-05-07 13:19 52.92626 -57.40641 32798 ft 497 kts 68°
2026-05-07 13:20 52.95545 -57.30289 32789 ft 496 kts 69°
2026-05-07 13:20 52.98449 -57.19957 32807 ft 496 kts 69°
2026-05-07 13:21 53.01342 -57.09600 32798 ft 496 kts 69°
2026-05-07 13:21 53.04224 -56.99244 32796 ft 496 kts 69°
2026-05-07 13:22 53.07088 -56.88909 32805 ft 497 kts 69°
2026-05-07 13:22 53.09975 -56.78531 32811 ft 498 kts 67°
2026-05-07 13:23 53.13199 -56.68277 32822 ft 501 kts 65°
2026-05-07 13:23 53.16472 -56.58110 32840 ft 502 kts 65°
2026-05-07 13:24 53.19762 -56.47836 32837 ft 503 kts 65°
2026-05-07 13:24 53.23021 -56.37586 32845 ft 503 kts 65°
2026-05-07 13:25 53.26273 -56.27309 32848 ft 504 kts 66°
2026-05-07 13:25 53.29517 -56.17008 32853 ft 504 kts 66°
2026-05-07 13:26 53.32759 -56.06668 32862 ft 504 kts 66°
2026-05-07 13:26 53.35993 -55.96307 32870 ft 504 kts 66°
2026-05-07 13:27 53.39225 -55.85918 32882 ft 505 kts 66°
2026-05-07 13:27 53.42448 -55.75503 32871 ft 505 kts 66°
2026-05-07 13:28 53.45660 -55.65078 32884 ft 506 kts 65°
2026-05-07 13:28 53.48887 -55.54573 32877 ft 506 kts 65°
2026-05-07 13:29 53.52080 -55.44116 32883 ft 506 kts 65°
2026-05-07 13:29 53.55280 -55.33593 32889 ft 507 kts 66°
2026-05-07 13:30 53.58473 -55.23062 32891 ft 507 kts 66°
2026-05-07 13:30 53.61653 -55.12508 32893 ft 508 kts 66°
2026-05-07 13:31 53.64825 -55.01944 32908 ft 508 kts 66°
2026-05-07 13:31 53.67986 -54.91370 32901 ft 507 kts 66°
2026-05-07 13:32 53.71145 -54.80754 32917 ft 508 kts 66°
2026-05-07 13:32 53.74287 -54.70140 32904 ft 508 kts 66°
2026-05-07 13:33 53.77434 -54.59470 32906 ft 508 kts 66°
2026-05-07 13:33 53.80557 -54.48837 32905 ft 508 kts 66°
2026-05-07 13:34 53.85245 -54.32767 32912 ft 509 kts 67°
2026-05-07 13:35 53.88351 -54.22077 32913 ft 508 kts 67°
2026-05-07 13:35 53.91454 -54.11333 32919 ft 508 kts 67°
2026-05-07 13:36 53.94526 -54.00656 32924 ft 508 kts 67°
2026-05-07 13:36 53.97615 -53.89862 32925 ft 509 kts 67°
2026-05-07 13:37 54.00668 -53.79150 32935 ft 509 kts 66°
2026-05-07 13:37 54.03734 -53.68340 32937 ft 509 kts 67°
2026-05-07 13:38 54.06809 -53.57451 32938 ft 510 kts 67°
2026-05-07 13:38 54.09859 -53.46598 32942 ft 510 kts 66°
2026-05-07 13:39 54.12893 -53.35754 32943 ft 510 kts 67°
2026-05-07 13:39 54.15934 -53.24834 32951 ft 510 kts 68°
2026-05-07 13:40 54.18953 -53.13937 32951 ft 510 kts 67°
2026-05-07 13:40 54.21962 -53.03027 32958 ft 510 kts 67°
2026-05-07 13:41 54.24950 -52.92145 32957 ft 510 kts 68°
2026-05-07 13:41 54.27947 -52.81174 32973 ft 510 kts 67°
2026-05-07 13:42 54.30931 -52.70196 32968 ft 510 kts 67°
2026-05-07 13:42 54.33903 -52.59213 32966 ft 509 kts 67°
2026-05-07 13:43 54.36852 -52.48266 32978 ft 509 kts 67°
2026-05-07 13:43 54.39800 -52.37262 32973 ft 511 kts 67°
2026-05-07 13:44 54.42742 -52.26239 32976 ft 511 kts 68°
2026-05-07 13:44 54.45672 -52.15203 32984 ft 510 kts 68°
2026-05-07 13:45 54.48598 -52.04115 32982 ft 510 kts 68°
2026-05-07 13:45 54.51512 -51.93036 32987 ft 511 kts 68°
2026-05-07 13:46 54.54414 -51.81936 32987 ft 511 kts 68°
2026-05-07 13:46 54.57303 -51.70839 32985 ft 510 kts 68°
2026-05-07 13:47 54.60192 -51.59687 32989 ft 511 kts 68°
2026-05-07 13:47 54.63068 -51.48530 32995 ft 511 kts 68°
2026-05-07 13:48 54.65932 -51.37367 32998 ft 511 kts 68°
2026-05-07 13:48 54.68787 -51.26181 33006 ft 511 kts 68°
2026-05-07 13:49 54.71630 -51.14988 33006 ft 510 kts 69°
2026-05-07 13:49 54.74473 -51.03726 33011 ft 511 kts 68°
2026-05-07 13:50 54.77294 -50.92499 33015 ft 511 kts 68°
2026-05-07 13:50 54.80093 -50.81311 33014 ft 511 kts 68°
2026-05-07 13:51 54.82892 -50.70054 33007 ft 511 kts 68°
2026-05-07 13:51 54.85686 -50.58760 33011 ft 512 kts 68°
2026-05-07 13:52 54.88476 -50.47432 33005 ft 512 kts 68°
2026-05-07 13:52 54.91254 -50.36102 33009 ft 512 kts 68°
2026-05-07 13:53 54.94032 -50.24713 33011 ft 512 kts 68°
2026-05-07 13:53 54.96788 -50.13287 33009 ft 512 kts 70°
2026-05-07 13:54 54.99007 -50.01599 33010 ft 511 kts 77°
2026-05-07 13:54 55.00352 -49.89559 33012 ft 507 kts 85°
2026-05-07 13:55 55.00931 -49.77442 33025 ft 505 kts 90°
2026-05-07 13:55 55.01358 -49.65292 33034 ft 506 kts 89°
2026-05-07 13:56 55.01797 -49.53068 33032 ft 506 kts 89°
2026-05-07 13:56 55.02238 -49.40911 33030 ft 505 kts 89°
2026-05-07 13:57 55.02674 -49.28692 33036 ft 505 kts 90°
2026-05-07 13:57 55.03097 -49.16610 33045 ft 503 kts 90°
2026-05-07 13:58 55.03504 -49.04479 33035 ft 504 kts 90°
2026-05-07 13:58 55.03899 -48.92332 33049 ft 504 kts 90°
2026-05-07 13:59 55.04287 -48.80148 33053 ft 504 kts 89°
2026-05-07 13:59 55.04659 -48.68033 33054 ft 505 kts 89°
2026-05-07 14:00 55.05021 -48.55856 33064 ft 504 kts 90°
2026-05-07 14:00 55.05370 -48.43676 33063 ft 505 kts 89°
2026-05-07 14:01 55.05708 -48.31524 33060 ft 505 kts 90°
2026-05-07 14:01 55.06032 -48.19378 33060 ft 505 kts 90°
2026-05-07 14:02 55.06347 -48.07138 33066 ft 505 kts 90°
2026-05-07 14:02 55.06645 -47.94979 33070 ft 505 kts 90°
2026-05-07 14:03 55.06932 -47.82842 33073 ft 504 kts 90°
2026-05-07 14:03 55.07211 -47.70633 33076 ft 505 kts 90°
2026-05-07 14:04 55.07475 -47.58447 33080 ft 505 kts 89°
2026-05-07 14:04 55.07729 -47.46265 33085 ft 504 kts 89°
2026-05-07 14:05 55.07970 -47.34036 33091 ft 505 kts 90°
2026-05-07 14:05 55.08198 -47.21847 33095 ft 505 kts 90°
2026-05-07 14:06 55.08413 -47.09655 33103 ft 505 kts 90°
2026-05-07 14:06 55.08617 -46.97362 33108 ft 505 kts 90°
2026-05-07 14:07 55.08807 -46.85196 33107 ft 506 kts 90°
2026-05-07 14:07 55.08987 -46.72910 33109 ft 505 kts 90°
2026-05-07 14:08 55.09156 -46.60749 33110 ft 505 kts 90°
2026-05-07 14:08 55.09311 -46.48509 33109 ft 504 kts 90°
2026-05-07 14:09 55.09453 -46.36278 33111 ft 504 kts 89°
2026-05-07 14:09 55.09583 -46.24105 33111 ft 504 kts 90°
2026-05-07 14:10 55.09703 -46.11946 33111 ft 503 kts 90°
2026-05-07 14:10 55.09808 -45.99800 33111 ft 503 kts 90°
2026-05-07 14:11 55.09901 -45.87586 33116 ft 504 kts 90°
2026-05-07 14:11 55.09981 -45.75447 33116 ft 503 kts 90°
2026-05-07 14:12 55.10052 -45.63241 33118 ft 503 kts 90°
2026-05-07 14:12 55.10108 -45.51071 33123 ft 503 kts 90°
2026-05-07 14:13 55.10154 -45.38896 33125 ft 503 kts 89°
2026-05-07 14:13 55.10188 -45.26759 33130 ft 503 kts 90°
2026-05-07 14:14 55.10210 -45.14645 33133 ft 503 kts 90°
2026-05-07 14:14 55.10218 -45.02454 33134 ft 503 kts 90°
2026-05-07 14:15 55.10213 -44.90247 33137 ft 503 kts 90°
2026-05-07 14:15 55.10196 -44.78108 33143 ft 503 kts 90°
2026-05-07 14:16 55.10169 -44.65927 33263 ft 504 kts 90°
2026-05-07 14:16 55.10152 -44.59881 33517 ft 503 kts 90°
2026-05-07 14:16 55.10131 -44.53808 33783 ft 501 kts 90°
2026-05-07 14:16 55.10106 -44.47810 33989 ft 500 kts 90°
2026-05-07 14:17 55.10080 -44.41708 34163 ft 500 kts 90°
2026-05-07 14:17 55.10050 -44.35714 34321 ft 500 kts 90°
2026-05-07 14:17 55.10018 -44.29630 34482 ft 500 kts 91°
2026-05-07 14:17 55.09983 -44.23628 34659 ft 499 kts 90°
2026-05-07 14:18 55.09944 -44.17607 34845 ft 499 kts 90°
2026-05-07 14:18 55.09900 -44.11543 35058 ft 497 kts 90°
2026-05-07 14:18 55.09855 -44.05586 35169 ft 497 kts 90°
2026-05-07 14:19 55.09757 -43.93547 35177 ft 497 kts 90°
2026-05-07 14:19 55.09646 -43.81562 35175 ft 496 kts 90°
2026-05-07 14:20 55.09524 -43.69569 35176 ft 496 kts 90°
2026-05-07 14:20 55.09392 -43.57570 35182 ft 495 kts 90°
2026-05-07 14:21 55.09246 -43.45642 35188 ft 496 kts 90°
2026-05-07 14:21 55.09087 -43.33669 35185 ft 496 kts 91°
2026-05-07 14:22 55.08918 -43.21647 35188 ft 495 kts 90°
2026-05-07 14:22 55.08740 -43.09734 35194 ft 495 kts 90°
2026-05-07 14:23 55.08548 -42.97819 35196 ft 495 kts 91°
2026-05-07 14:23 55.08345 -42.85789 35201 ft 496 kts 90°
2026-05-07 14:24 55.08130 -42.73798 35203 ft 496 kts 90°
2026-05-07 14:24 55.07901 -42.61820 35207 ft 496 kts 90°
2026-05-07 14:25 55.07661 -42.49867 35209 ft 496 kts 90°
2026-05-07 14:25 55.07412 -42.37915 35212 ft 495 kts 90°
2026-05-07 14:26 55.07150 -42.25941 35214 ft 495 kts 90°
2026-05-07 14:26 55.06878 -42.14056 35217 ft 495 kts 90°
2026-05-07 14:27 55.06590 -42.02120 35221 ft 495 kts 90°
2026-05-07 14:27 55.06294 -41.90118 35218 ft 495 kts 90°
2026-05-07 14:28 55.05983 -41.78129 35222 ft 496 kts 90°
2026-05-07 14:28 55.05662 -41.66159 35228 ft 496 kts 90°
2026-05-07 14:29 55.05332 -41.54246 35234 ft 496 kts 89°
2026-05-07 14:29 55.04987 -41.42280 35238 ft 497 kts 89°
2026-05-07 14:29 55.04808 -41.36288 35136 ft 497 kts 89°
2026-05-07 14:30 55.04628 -41.30255 35189 ft 498 kts 90°
2026-05-07 14:30 55.04259 -41.18297 35238 ft 498 kts 90°
2026-05-07 14:31 55.03877 -41.06303 35253 ft 498 kts 90°
2026-05-07 14:31 55.03482 -40.94213 35263 ft 498 kts 90°
2026-05-07 14:32 55.03080 -40.82267 35266 ft 499 kts 90°
2026-05-07 14:32 55.02660 -40.70233 35264 ft 499 kts 90°
2026-05-07 14:33 55.02229 -40.58221 35272 ft 498 kts 89°
2026-05-07 14:33 55.01791 -40.46229 35267 ft 498 kts 89°
2026-05-07 14:34 55.01339 -40.34245 35278 ft 497 kts 90°
2026-05-07 14:34 55.00878 -40.22265 35279 ft 497 kts 90°
2026-05-07 14:35 55.00404 -40.10329 35281 ft 497 kts 90°
2026-05-07 14:35 54.99598 -39.98406 35281 ft 501 kts 97°
2026-05-07 14:36 54.97993 -39.86603 35280 ft 504 kts 102°
2026-05-07 14:36 54.96169 -39.74838 35280 ft 504 kts 102°
2026-05-07 14:37 54.94348 -39.63098 35282 ft 504 kts 102°
2026-05-07 14:37 54.91628 -39.45567 35285 ft 504 kts 101°
2026-05-07 14:38 54.89798 -39.33848 35286 ft 504 kts 102°
2026-05-07 14:38 54.87959 -39.22138 35288 ft 505 kts 102°
2026-05-07 14:39 54.86110 -39.10464 35292 ft 504 kts 102°
2026-05-07 14:39 54.84243 -38.98737 35294 ft 505 kts 102°
2026-05-07 14:40 54.82368 -38.87064 35300 ft 504 kts 102°
2026-05-07 14:40 54.80490 -38.75460 35306 ft 504 kts 101°
2026-05-07 14:41 54.78593 -38.63792 35308 ft 504 kts 101°
2026-05-07 14:41 54.76689 -38.52169 35311 ft 504 kts 101°
2026-05-07 14:42 54.74770 -38.40531 35311 ft 504 kts 101°
2026-05-07 14:42 54.72853 -38.29000 35311 ft 504 kts 102°
2026-05-07 14:43 54.70911 -38.17379 35316 ft 505 kts 102°
2026-05-07 14:43 54.68962 -38.05792 35321 ft 505 kts 102°
2026-05-07 14:44 54.66985 -37.94129 35314 ft 506 kts 102°
2026-05-07 14:44 54.65010 -37.82549 35315 ft 505 kts 102°
2026-05-07 14:45 54.63022 -37.70975 35312 ft 505 kts 101°
2026-05-07 14:45 54.61023 -37.59396 35313 ft 506 kts 101°
2026-05-07 14:46 54.59017 -37.47867 35317 ft 506 kts 101°
2026-05-07 14:46 54.56990 -37.36283 35319 ft 505 kts 101°
2026-05-07 14:47 54.54964 -37.24782 35318 ft 505 kts 102°
2026-05-07 14:47 54.52917 -37.13228 35318 ft 506 kts 102°
2026-05-07 14:48 54.50869 -37.01756 35318 ft 506 kts 101°
2026-05-07 14:48 54.48787 -36.90160 35320 ft 507 kts 102°
2026-05-07 14:49 54.46719 -36.78717 35319 ft 506 kts 101°
2026-05-07 14:49 54.44627 -36.67213 35316 ft 507 kts 101°
2026-05-07 14:50 54.42520 -36.55683 35307 ft 507 kts 101°
2026-05-07 14:50 54.40406 -36.44206 35307 ft 508 kts 101°
2026-05-07 14:51 54.38264 -36.32642 35309 ft 509 kts 102°
2026-05-07 14:51 54.36116 -36.21113 35308 ft 509 kts 102°
2026-05-07 14:52 54.33964 -36.09649 35310 ft 509 kts 102°
2026-05-07 14:52 54.31805 -35.98199 35313 ft 508 kts 102°
2026-05-07 14:53 54.29618 -35.86681 35313 ft 509 kts 102°
2026-05-07 14:53 54.27441 -35.75279 35308 ft 508 kts 102°
2026-05-07 14:54 54.25235 -35.63798 35306 ft 509 kts 102°
2026-05-07 14:54 54.23033 -35.52399 35306 ft 509 kts 102°
2026-05-07 14:55 54.20804 -35.40931 35309 ft 509 kts 102°
2026-05-07 14:55 54.18568 -35.29493 35307 ft 511 kts 103°
2026-05-07 14:56 54.16326 -35.18100 35305 ft 510 kts 102°
2026-05-07 14:56 54.14075 -35.06736 35305 ft 509 kts 102°
2026-05-07 14:57 54.11807 -34.95333 35301 ft 510 kts 103°
2026-05-07 14:57 54.09523 -34.83933 35302 ft 511 kts 102°
2026-05-07 14:58 54.07232 -34.72557 35300 ft 509 kts 102°
2026-05-07 14:58 54.04926 -34.61182 35297 ft 509 kts 102°
2026-05-07 14:59 54.02632 -34.49917 35298 ft 510 kts 102°
2026-05-07 14:59 54.00301 -34.38541 35295 ft 509 kts 102°
2026-05-07 15:00 53.97981 -34.27273 35295 ft 510 kts 103°
2026-05-07 15:00 53.95630 -34.15918 35293 ft 510 kts 103°
2026-05-07 15:01 53.93268 -34.04590 35295 ft 512 kts 102°
2026-05-07 15:01 53.90902 -33.93303 35301 ft 511 kts 103°
2026-05-07 15:02 53.88524 -33.82015 35309 ft 512 kts 102°
2026-05-07 15:02 53.86128 -33.70710 35306 ft 511 kts 102°
2026-05-07 15:03 53.83732 -33.59469 35303 ft 510 kts 103°
2026-05-07 15:03 53.81320 -33.48215 35301 ft 509 kts 102°
2026-05-07 15:04 53.78907 -33.37008 35310 ft 510 kts 103°
2026-05-07 15:04 53.76473 -33.25772 35297 ft 511 kts 103°
2026-05-07 15:05 53.74029 -33.14566 35309 ft 509 kts 103°
2026-05-07 15:05 53.71598 -33.03469 35297 ft 508 kts 103°
2026-05-07 15:06 53.69143 -32.92316 35296 ft 509 kts 103°
2026-05-07 15:06 53.66677 -32.81173 35286 ft 510 kts 103°
2026-05-07 15:07 53.64194 -32.70017 35280 ft 511 kts 103°
2026-05-07 15:07 53.61699 -32.58874 35272 ft 511 kts 103°
2026-05-07 15:08 53.59188 -32.47713 35269 ft 511 kts 103°
2026-05-07 15:08 53.56672 -32.36581 35271 ft 511 kts 103°
2026-05-07 15:09 53.54147 -32.25473 35268 ft 512 kts 104°
2026-05-07 15:09 53.51609 -32.14369 35269 ft 514 kts 104°
2026-05-07 15:10 53.49046 -32.03221 35265 ft 514 kts 104°
2026-05-07 15:10 53.46463 -31.92044 35257 ft 513 kts 103°
2026-05-07 15:11 53.43892 -31.80973 35261 ft 513 kts 103°
2026-05-07 15:11 53.41310 -31.69900 35257 ft 513 kts 103°
2026-05-07 15:12 53.38709 -31.58812 35254 ft 514 kts 103°
2026-05-07 15:12 53.36105 -31.47783 35258 ft 512 kts 103°
2026-05-07 15:13 53.33487 -31.36727 35258 ft 513 kts 103°
2026-05-07 15:13 53.30855 -31.25667 35262 ft 515 kts 104°
2026-05-07 15:14 53.28205 -31.14608 35254 ft 515 kts 104°
2026-05-07 15:14 53.25548 -31.03576 35265 ft 514 kts 103°
2026-05-07 15:15 53.22883 -30.92556 35257 ft 514 kts 104°
2026-05-07 15:15 53.20201 -30.81505 35257 ft 515 kts 104°
2026-05-07 15:16 53.17521 -30.70547 35257 ft 515 kts 104°
2026-05-07 15:16 53.14819 -30.59545 35244 ft 514 kts 104°
2026-05-07 15:17 53.12119 -30.48608 35251 ft 513 kts 104°
2026-05-07 15:17 53.09400 -30.37636 35238 ft 514 kts 104°
2026-05-07 15:18 53.06679 -30.26705 35236 ft 513 kts 105°
2026-05-07 15:18 53.03959 -30.15833 35234 ft 513 kts 104°
2026-05-07 15:19 53.01209 -30.04909 35238 ft 513 kts 105°
2026-05-07 15:19 52.98505 -29.94049 35224 ft 512 kts 104°
2026-05-07 15:20 52.95872 -29.83128 35217 ft 511 kts 104°
2026-05-07 15:20 52.93232 -29.72206 35201 ft 512 kts 104°
2026-05-07 15:21 52.90586 -29.61343 35190 ft 511 kts 104°
2026-05-07 15:21 52.87928 -29.50489 35186 ft 509 kts 104°
2026-05-07 15:22 52.85259 -29.39641 35190 ft 511 kts 104°
2026-05-07 15:22 52.82591 -29.28858 35177 ft 511 kts 105°
2026-05-07 15:23 52.79899 -29.18037 35185 ft 511 kts 105°
2026-05-07 15:23 52.77203 -29.07241 35191 ft 510 kts 105°
2026-05-07 15:24 52.74508 -28.96526 35191 ft 508 kts 105°
2026-05-07 15:24 52.71807 -28.85815 35159 ft 508 kts 105°
2026-05-07 15:25 52.70450 -28.80450 35268 ft 509 kts 105°
2026-05-07 15:25 52.69091 -28.75092 35237 ft 510 kts 105°
2026-05-07 15:25 52.66357 -28.64377 35193 ft 508 kts 105°
2026-05-07 15:26 52.63629 -28.53710 35176 ft 509 kts 105°
2026-05-07 15:26 52.60891 -28.43064 35175 ft 508 kts 105°
2026-05-07 15:27 52.58125 -28.32364 35159 ft 508 kts 106°
2026-05-07 15:27 52.55372 -28.21752 35173 ft 509 kts 106°
2026-05-07 15:28 52.52592 -28.11097 35168 ft 509 kts 107°
2026-05-07 15:28 52.49808 -28.00480 35134 ft 508 kts 107°
2026-05-07 15:29 52.47026 -27.89917 35139 ft 507 kts 107°
2026-05-07 15:29 52.44236 -27.79364 35138 ft 508 kts 107°
2026-05-07 15:30 52.41433 -27.68823 35140 ft 507 kts 107°
2026-05-07 15:30 52.38615 -27.58270 35124 ft 506 kts 107°
2026-05-07 15:31 52.35799 -27.47772 35136 ft 505 kts 107°
2026-05-07 15:31 52.32980 -27.37311 35127 ft 505 kts 107°
2026-05-07 15:32 52.30154 -27.26863 35155 ft 505 kts 108°
2026-05-07 15:32 52.27314 -27.16423 35112 ft 505 kts 108°
2026-05-07 15:33 52.24469 -27.06002 35118 ft 504 kts 108°
2026-05-07 15:33 52.21615 -26.95592 35111 ft 505 kts 109°
2026-05-07 15:34 52.18753 -26.85218 35106 ft 504 kts 109°
2026-05-07 15:34 52.15894 -26.74895 35115 ft 503 kts 109°
2026-05-07 15:35 52.13014 -26.64537 35096 ft 502 kts 109°
2026-05-07 15:35 52.10149 -26.54270 35102 ft 501 kts 109°
2026-05-07 15:36 52.07276 -26.44038 35096 ft 501 kts 109°
2026-05-07 15:36 52.04382 -26.33761 35106 ft 500 kts 110°
2026-05-07 15:37 52.01493 -26.23556 35087 ft 499 kts 110°
2026-05-07 15:37 51.98606 -26.13396 35082 ft 498 kts 110°
2026-05-07 15:38 51.95718 -26.03278 35087 ft 497 kts 111°
2026-05-07 15:38 51.92816 -25.93158 35087 ft 497 kts 111°
2026-05-07 15:39 51.89893 -25.83002 35105 ft 496 kts 111°
2026-05-07 15:39 51.87000 -25.73002 35074 ft 495 kts 111°
2026-05-07 15:40 51.84066 -25.62896 35084 ft 495 kts 111°
2026-05-07 15:40 51.81160 -25.52923 35065 ft 495 kts 111°
2026-05-07 15:41 51.78216 -25.42872 35066 ft 494 kts 111°
2026-05-07 15:41 51.75286 -25.32912 35071 ft 493 kts 112°
2026-05-07 15:42 51.72355 -25.22981 35062 ft 492 kts 112°
2026-05-07 15:42 51.69423 -25.13096 35072 ft 491 kts 112°
2026-05-07 15:43 51.66482 -25.03219 35060 ft 491 kts 112°
2026-05-07 15:43 51.63528 -24.93336 35066 ft 490 kts 112°
2026-05-07 15:44 51.60578 -24.83507 35060 ft 489 kts 112°
2026-05-07 15:44 51.57626 -24.73709 35078 ft 488 kts 113°
2026-05-07 15:45 51.54683 -24.63987 35056 ft 488 kts 113°
2026-05-07 15:45 51.51705 -24.54186 35066 ft 488 kts 113°
2026-05-07 15:46 51.47270 -24.39664 35061 ft 486 kts 114°
2026-05-07 15:47 51.44292 -24.29959 35062 ft 485 kts 114°
2026-05-07 15:47 51.41305 -24.20266 35047 ft 485 kts 114°
2026-05-07 15:48 51.38340 -24.10684 35048 ft 485 kts 115°
2026-05-07 15:48 51.35344 -24.01037 35050 ft 484 kts 115°
2026-05-07 15:49 51.32354 -23.91445 35049 ft 483 kts 115°
2026-05-07 15:49 51.29368 -23.81906 35047 ft 482 kts 115°
2026-05-07 15:50 51.26386 -23.72417 35041 ft 481 kts 115°
2026-05-07 15:50 51.23371 -23.62859 35048 ft 482 kts 115°
2026-05-07 15:51 51.20380 -23.53410 35036 ft 481 kts 115°
2026-05-07 15:51 51.17359 -23.43907 35031 ft 480 kts 116°
2026-05-07 15:52 51.14362 -23.34518 35026 ft 479 kts 117°
2026-05-07 15:52 51.11344 -23.25097 35022 ft 479 kts 117°
2026-05-07 15:53 51.08321 -23.15699 35027 ft 479 kts 117°
2026-05-07 15:53 51.05280 -23.06280 35027 ft 478 kts 117°
2026-05-07 15:54 51.02260 -22.96958 35013 ft 477 kts 117°
2026-05-07 15:54 50.99217 -22.87599 35019 ft 477 kts 117°
2026-05-07 15:55 50.96187 -22.78317 35014 ft 476 kts 117°
2026-05-07 15:55 50.93148 -22.69045 35019 ft 476 kts 117°
2026-05-07 15:56 50.90094 -22.59759 35014 ft 476 kts 117°
2026-05-07 15:56 50.87054 -22.50551 35009 ft 475 kts 117°
2026-05-07 15:57 50.84003 -22.41341 35007 ft 475 kts 118°
2026-05-07 15:57 50.80951 -22.32159 35011 ft 474 kts 119°
2026-05-07 15:58 50.77872 -22.22934 34995 ft 474 kts 119°
2026-05-07 15:58 50.74816 -22.13815 34984 ft 473 kts 119°
2026-05-07 15:59 50.71740 -22.04667 34997 ft 473 kts 119°
2026-05-07 15:59 50.68658 -21.95535 34987 ft 472 kts 120°
2026-05-07 16:00 50.65593 -21.86487 34964 ft 472 kts 120°
2026-05-07 16:00 50.62508 -21.77409 34965 ft 471 kts 120°
2026-05-07 16:01 50.59419 -21.68350 34984 ft 471 kts 120°
2026-05-07 16:01 50.56330 -21.59325 34964 ft 470 kts 120°
2026-05-07 16:02 50.53229 -21.50300 34972 ft 470 kts 120°
2026-05-07 16:02 50.50120 -21.41281 34980 ft 471 kts 121°
2026-05-07 16:03 50.47021 -21.32325 34957 ft 470 kts 121°
2026-05-07 16:03 50.43916 -21.23377 34960 ft 469 kts 121°
2026-05-07 16:04 50.40785 -21.14392 34945 ft 469 kts 122°
2026-05-07 16:04 50.37669 -21.05478 34929 ft 467 kts 122°
2026-05-07 16:05 50.34549 -20.96591 34934 ft 468 kts 122°
2026-05-07 16:05 50.31430 -20.87735 34946 ft 468 kts 122°
2026-05-07 16:06 50.28300 -20.78876 34946 ft 468 kts 122°
2026-05-07 16:06 50.25162 -20.70026 34943 ft 467 kts 122°
2026-05-07 16:07 50.22012 -20.61163 34952 ft 467 kts 123°
2026-05-07 16:07 50.18866 -20.52355 34933 ft 468 kts 123°
2026-05-07 16:08 50.15697 -20.43504 34931 ft 468 kts 123°
2026-05-07 16:08 50.12526 -20.34676 34923 ft 468 kts 124°
2026-05-07 16:09 50.09351 -20.25867 34933 ft 468 kts 124°
2026-05-07 16:09 50.06185 -20.17111 34922 ft 467 kts 124°
2026-05-07 16:10 50.02998 -20.08334 34928 ft 466 kts 124°
2026-05-07 16:10 49.99607 -19.99870 34945 ft 462 kts 131°
2026-05-07 16:11 49.95671 -19.92142 34922 ft 456 kts 136°
2026-05-07 16:11 49.91563 -19.84669 34940 ft 456 kts 136°
2026-05-07 16:12 49.87461 -19.77209 34937 ft 456 kts 136°
2026-05-07 16:12 49.83346 -19.69737 34941 ft 458 kts 136°
2026-05-07 16:13 49.79214 -19.62246 34933 ft 456 kts 136°
2026-05-07 16:13 49.75099 -19.54809 34936 ft 457 kts 136°
2026-05-07 16:14 49.70983 -19.47391 34937 ft 457 kts 136°
2026-05-07 16:14 49.66869 -19.39998 34933 ft 457 kts 136°
2026-05-07 16:15 49.62745 -19.32604 34934 ft 455 kts 137°
2026-05-07 16:15 49.58632 -19.25252 34929 ft 455 kts 137°
2026-05-07 16:16 49.54507 -19.17900 34924 ft 455 kts 137°
2026-05-07 16:16 49.50373 -19.10555 34931 ft 455 kts 137°
2026-05-07 16:17 49.46241 -19.03234 34933 ft 456 kts 137°
2026-05-07 16:17 49.42099 -18.95915 34926 ft 455 kts 137°
2026-05-07 16:18 49.37955 -18.88612 34927 ft 456 kts 137°
2026-05-07 16:18 49.33775 -18.81269 34927 ft 456 kts 136°
2026-05-07 16:19 49.29629 -18.74002 34925 ft 456 kts 136°
2026-05-07 16:19 49.25446 -18.66692 34927 ft 456 kts 136°
2026-05-07 16:20 49.21271 -18.59416 34931 ft 457 kts 136°
2026-05-07 16:20 49.17084 -18.52138 34935 ft 456 kts 136°
2026-05-07 16:21 49.12925 -18.44929 34941 ft 456 kts 136°
2026-05-07 16:21 49.08729 -18.37677 34938 ft 456 kts 136°
2026-05-07 16:22 49.04546 -18.30469 34933 ft 455 kts 137°
2026-05-07 16:22 49.00365 -18.23283 34939 ft 455 kts 137°
2026-05-07 16:23 48.96186 -18.16123 34937 ft 454 kts 137°
2026-05-07 16:23 48.91987 -18.08945 34944 ft 454 kts 137°
2026-05-07 16:24 48.87785 -18.01778 34947 ft 454 kts 137°
2026-05-07 16:24 48.83599 -17.94665 34944 ft 455 kts 137°
2026-05-07 16:25 48.79392 -17.87532 34944 ft 456 kts 137°
2026-05-07 16:25 48.75153 -17.80366 34944 ft 455 kts 137°
2026-05-07 16:26 48.70954 -17.73285 34948 ft 455 kts 137°
2026-05-07 16:26 48.66724 -17.66170 34946 ft 454 kts 137°
2026-05-07 16:27 48.62536 -17.59148 34944 ft 454 kts 137°
2026-05-07 16:27 48.58310 -17.52078 34945 ft 453 kts 137°
2026-05-07 16:28 48.54112 -17.45074 34944 ft 453 kts 137°
2026-05-07 16:28 48.49888 -17.38048 34950 ft 453 kts 137°
2026-05-07 16:29 48.45667 -17.31044 34944 ft 452 kts 137°
2026-05-07 16:29 48.41443 -17.24053 34944 ft 452 kts 137°
2026-05-07 16:30 48.37238 -17.17113 34939 ft 451 kts 137°
2026-05-07 16:30 48.33024 -17.10178 34942 ft 450 kts 137°
2026-05-07 16:31 48.28825 -17.03285 34942 ft 450 kts 137°
2026-05-07 16:31 48.24604 -16.96373 34946 ft 450 kts 137°
2026-05-07 16:32 48.20363 -16.89446 34947 ft 450 kts 137°
2026-05-07 16:32 48.16160 -16.82600 34951 ft 451 kts 137°
2026-05-07 16:33 48.11915 -16.75702 34954 ft 451 kts 137°
2026-05-07 16:33 48.07666 -16.68819 34945 ft 451 kts 137°
2026-05-07 16:34 48.03421 -16.61959 34956 ft 451 kts 137°
2026-05-07 16:34 47.99172 -16.55114 34950 ft 451 kts 137°
2026-05-07 16:35 47.94916 -16.48271 34956 ft 452 kts 137°
2026-05-07 16:35 47.90638 -16.41410 34958 ft 452 kts 137°
2026-05-07 16:36 47.86358 -16.34561 34957 ft 452 kts 138°
2026-05-07 16:36 47.82106 -16.27778 34958 ft 452 kts 137°
2026-05-07 16:37 47.77820 -16.20959 34953 ft 452 kts 138°
2026-05-07 16:37 47.73531 -16.14154 34944 ft 452 kts 137°
2026-05-07 16:38 47.69245 -16.07368 34942 ft 452 kts 137°
2026-05-07 16:38 47.64936 -16.00566 34946 ft 453 kts 137°
2026-05-07 16:39 47.60651 -15.93818 34946 ft 452 kts 137°
2026-05-07 16:39 47.56352 -15.87064 34948 ft 452 kts 137°
2026-05-07 16:40 47.52040 -15.80308 34957 ft 452 kts 137°
2026-05-07 16:40 47.47723 -15.73561 34952 ft 454 kts 137°
2026-05-07 16:41 47.43401 -15.66824 34946 ft 454 kts 137°
2026-05-07 16:41 47.39065 -15.60083 34953 ft 454 kts 137°
2026-05-07 16:42 47.34719 -15.53342 34947 ft 455 kts 137°
2026-05-07 16:42 47.30363 -15.46600 34957 ft 454 kts 137°
2026-05-07 16:43 47.26009 -15.39884 34945 ft 455 kts 137°
2026-05-07 16:43 47.21674 -15.33209 34949 ft 455 kts 138°
2026-05-07 16:44 47.17305 -15.26499 34945 ft 456 kts 138°
2026-05-07 16:44 47.12906 -15.19758 34950 ft 456 kts 138°
2026-05-07 16:45 47.08531 -15.13064 34955 ft 456 kts 138°
2026-05-07 16:45 47.04165 -15.06410 34944 ft 457 kts 138°
2026-05-07 16:46 46.99882 -14.99446 34955 ft 460 kts 133°
2026-05-07 16:46 46.96132 -14.91899 34949 ft 462 kts 128°
2026-05-07 16:47 46.92527 -14.84168 34949 ft 462 kts 128°
2026-05-07 16:47 46.88905 -14.76426 34949 ft 463 kts 128°
2026-05-07 16:48 46.85263 -14.68668 34942 ft 463 kts 128°
2026-05-07 16:48 46.81634 -14.60961 34946 ft 463 kts 128°
2026-05-07 16:49 46.78000 -14.53267 34946 ft 462 kts 128°
2026-05-07 16:49 46.74338 -14.45532 34947 ft 462 kts 128°
2026-05-07 16:50 46.70699 -14.37871 34944 ft 463 kts 128°
2026-05-07 16:50 46.67042 -14.30193 34946 ft 463 kts 129°
2026-05-07 16:51 46.63398 -14.22565 34944 ft 462 kts 129°
2026-05-07 16:51 46.59734 -14.14916 34949 ft 462 kts 129°
2026-05-07 16:52 46.56049 -14.07244 34944 ft 463 kts 129°
2026-05-07 16:52 46.52371 -13.99607 34944 ft 463 kts 129°
2026-05-07 16:53 46.48695 -13.91996 34947 ft 463 kts 129°
2026-05-07 16:53 46.45014 -13.84392 34937 ft 462 kts 129°
2026-05-07 16:54 46.41332 -13.76809 34935 ft 462 kts 129°
2026-05-07 16:54 46.37622 -13.69188 34941 ft 463 kts 129°
2026-05-07 16:55 46.33930 -13.61624 34940 ft 463 kts 129°
2026-05-07 16:55 46.30208 -13.54020 34943 ft 463 kts 129°
2026-05-07 16:56 46.26503 -13.46471 34931 ft 463 kts 129°
2026-05-07 16:56 46.20913 -13.35118 34934 ft 463 kts 129°
2026-05-07 16:57 46.17182 -13.27572 34933 ft 463 kts 129°
2026-05-07 16:57 46.13467 -13.20074 34935 ft 463 kts 129°
2026-05-07 16:58 46.09721 -13.12530 34930 ft 464 kts 129°
2026-05-07 16:58 46.05973 -13.05007 34927 ft 464 kts 129°
2026-05-07 16:59 46.02220 -12.97492 34929 ft 463 kts 129°
2026-05-07 16:59 45.98473 -12.90007 34927 ft 463 kts 129°
2026-05-07 17:00 45.94715 -12.82520 34934 ft 464 kts 129°
2026-05-07 17:00 45.90939 -12.75020 34943 ft 464 kts 129°
2026-05-07 17:01 45.87160 -12.67536 34944 ft 465 kts 129°
2026-05-07 17:01 45.83396 -12.60103 34940 ft 465 kts 129°
2026-05-07 17:02 45.79584 -12.52587 34941 ft 465 kts 129°
2026-05-07 17:02 45.75808 -12.45166 34941 ft 465 kts 129°
2026-05-07 17:03 45.71993 -12.37686 34946 ft 465 kts 129°
2026-05-07 17:03 45.68187 -12.30243 34944 ft 466 kts 130°
2026-05-07 17:04 45.64377 -12.22815 34946 ft 465 kts 130°
2026-05-07 17:04 45.60549 -12.15373 34942 ft 466 kts 130°
2026-05-07 17:05 45.56723 -12.07949 34947 ft 466 kts 130°
2026-05-07 17:05 45.52884 -12.00524 34945 ft 467 kts 130°
2026-05-07 17:06 45.49038 -11.93100 34940 ft 467 kts 130°
2026-05-07 17:06 45.45182 -11.85679 34938 ft 467 kts 130°
2026-05-07 17:07 45.41347 -11.78316 34932 ft 467 kts 130°
2026-05-07 17:07 45.37471 -11.70894 34933 ft 468 kts 130°
2026-05-07 17:08 45.33588 -11.63480 34930 ft 468 kts 130°
2026-05-07 17:08 45.29717 -11.56106 34931 ft 469 kts 130°
2026-05-07 17:09 45.25822 -11.48705 34934 ft 469 kts 130°
2026-05-07 17:09 45.21918 -11.41302 34931 ft 469 kts 130°
2026-05-07 17:10 45.18036 -11.33962 34927 ft 469 kts 130°
2026-05-07 17:10 45.14130 -11.26596 34930 ft 468 kts 130°
2026-05-07 17:11 45.10226 -11.19244 34927 ft 469 kts 130°
2026-05-07 17:11 45.06307 -11.11885 34926 ft 470 kts 130°
2026-05-07 17:12 45.02356 -11.04518 34926 ft 471 kts 132°
2026-05-07 17:12 44.98069 -10.97655 34922 ft 467 kts 139°
2026-05-07 17:13 44.93333 -10.91401 34925 ft 466 kts 141°
2026-05-07 17:13 44.88568 -10.85237 34931 ft 466 kts 141°
2026-05-07 17:14 44.83801 -10.79073 34925 ft 467 kts 141°
2026-05-07 17:14 44.79017 -10.72893 34923 ft 468 kts 141°
2026-05-07 17:15 44.74236 -10.66726 34922 ft 469 kts 141°
2026-05-07 17:15 44.69446 -10.60564 34922 ft 470 kts 141°
2026-05-07 17:16 44.64613 -10.54359 34920 ft 470 kts 141°
2026-05-07 17:16 44.59811 -10.48207 34916 ft 470 kts 141°
2026-05-07 17:17 44.54980 -10.42035 34916 ft 471 kts 141°
2026-05-07 17:17 44.50143 -10.35869 34917 ft 471 kts 141°
2026-05-07 17:18 44.45304 -10.29715 34912 ft 471 kts 142°
2026-05-07 17:18 44.40470 -10.23583 34908 ft 471 kts 142°
2026-05-07 17:19 44.35621 -10.17442 34910 ft 472 kts 142°
2026-05-07 17:19 44.30760 -10.11306 34903 ft 472 kts 142°
2026-05-07 17:20 44.25882 -10.05159 34906 ft 473 kts 142°
2026-05-07 17:20 44.21028 -9.99057 34900 ft 473 kts 142°
2026-05-07 17:21 44.16142 -9.92929 34893 ft 474 kts 142°
2026-05-07 17:21 44.11241 -9.86796 34901 ft 475 kts 142°
2026-05-07 17:22 44.06326 -9.80660 34896 ft 475 kts 143°
2026-05-07 17:22 44.01414 -9.74545 34895 ft 476 kts 143°
2026-05-07 17:23 43.96516 -9.68461 34890 ft 475 kts 142°
2026-05-07 17:23 43.91589 -9.62354 34880 ft 476 kts 142°
2026-05-07 17:24 43.86660 -9.56253 34878 ft 476 kts 142°
2026-05-07 17:24 43.81718 -9.50155 34878 ft 476 kts 143°
2026-05-07 17:25 43.76786 -9.44091 34875 ft 476 kts 142°
2026-05-07 17:25 43.71859 -9.38041 34876 ft 477 kts 142°
2026-05-07 17:26 43.66912 -9.31979 34865 ft 477 kts 143°
2026-05-07 17:26 43.61924 -9.25882 34868 ft 479 kts 143°
2026-05-07 17:27 43.56972 -9.19839 34863 ft 478 kts 143°
2026-05-07 17:27 43.51995 -9.13778 34860 ft 479 kts 144°
2026-05-07 17:28 43.47007 -9.07726 34858 ft 479 kts 144°
2026-05-07 17:28 43.42015 -9.01678 34857 ft 479 kts 143°
2026-05-07 17:29 43.37023 -8.95640 34855 ft 479 kts 144°
2026-05-07 17:29 43.32014 -8.89597 34862 ft 479 kts 144°
2026-05-07 17:30 43.27031 -8.83606 34853 ft 482 kts 144°
2026-05-07 17:30 43.21979 -8.77537 34857 ft 482 kts 144°
2026-05-07 17:31 43.16919 -8.71474 34854 ft 483 kts 144°
2026-05-07 17:31 43.11906 -8.65477 34863 ft 484 kts 144°
2026-05-07 17:32 43.06831 -8.59421 34858 ft 486 kts 144°
2026-05-07 17:32 43.01747 -8.53364 34863 ft 486 kts 144°
2026-05-07 17:33 42.96688 -8.47264 34864 ft 488 kts 142°
2026-05-07 17:33 42.92016 -8.40522 34858 ft 492 kts 134°
2026-05-07 17:34 42.87925 -8.32947 34867 ft 498 kts 127°
2026-05-07 17:34 42.84154 -8.25054 34865 ft 499 kts 127°
2026-05-07 17:35 42.80392 -8.17192 34864 ft 500 kts 127°
2026-05-07 17:35 42.76591 -8.09307 34860 ft 500 kts 127°
2026-05-07 17:36 42.72767 -8.01409 34863 ft 500 kts 127°
2026-05-07 17:36 42.68946 -7.93535 34854 ft 500 kts 127°
2026-05-07 17:37 42.65130 -7.85698 34855 ft 500 kts 127°
2026-05-07 17:37 42.61291 -7.77836 34857 ft 501 kts 127°
2026-05-07 17:38 42.57441 -7.69963 34853 ft 501 kts 127°
2026-05-07 17:38 42.53580 -7.62099 34858 ft 502 kts 127°
2026-05-07 17:39 42.49736 -7.54286 34849 ft 502 kts 127°
2026-05-07 17:39 42.45856 -7.46418 34848 ft 501 kts 127°
2026-05-07 17:40 42.42000 -7.38625 34854 ft 502 kts 127°
2026-05-07 17:40 42.38112 -7.30778 34849 ft 502 kts 128°
2026-05-07 17:41 42.34234 -7.22986 34850 ft 503 kts 127°
2026-05-07 17:41 42.30333 -7.15162 34855 ft 504 kts 127°
2026-05-07 17:42 42.26412 -7.07311 34853 ft 505 kts 127°
2026-05-07 17:42 42.22478 -6.99463 34865 ft 505 kts 127°
2026-05-07 17:43 42.18567 -6.91666 34866 ft 505 kts 127°
2026-05-07 17:43 42.14622 -6.83835 34882 ft 507 kts 127°
2026-05-07 17:44 42.10651 -6.75975 34885 ft 508 kts 127°
2026-05-07 17:44 42.06698 -6.68166 34888 ft 509 kts 127°
2026-05-07 17:45 42.02716 -6.60314 34882 ft 509 kts 127°
2026-05-07 17:45 41.98725 -6.52470 34878 ft 511 kts 128°
2026-05-07 17:46 41.94717 -6.44614 34875 ft 512 kts 127°
2026-05-07 17:46 41.90689 -6.36726 34870 ft 512 kts 127°
2026-05-07 17:47 41.86679 -6.28890 34866 ft 513 kts 128°
2026-05-07 17:47 41.82645 -6.21034 34866 ft 513 kts 128°
2026-05-07 17:48 41.78597 -6.13210 34867 ft 513 kts 128°
2026-05-07 17:48 41.74539 -6.05372 34869 ft 514 kts 128°
2026-05-07 17:49 41.70457 -5.97504 34867 ft 513 kts 128°
2026-05-07 17:49 41.66387 -5.89666 34867 ft 515 kts 128°
2026-05-07 17:50 41.62331 -5.81861 34866 ft 514 kts 128°
2026-05-07 17:50 41.58244 -5.74040 34860 ft 514 kts 127°
2026-05-07 17:51 41.54581 -5.65856 34857 ft 516 kts 118°
2026-05-07 17:51 41.51828 -5.57071 34860 ft 516 kts 108°
2026-05-07 17:52 41.49982 -5.47875 34730 ft 515 kts 102°
2026-05-07 17:52 41.49187 -5.43230 34129 ft 518 kts 101°
2026-05-07 17:52 41.48383 -5.38543 33138 ft 525 kts 101°
2026-05-07 17:53 41.47557 -5.33797 32199 ft 529 kts 102°
2026-05-07 17:53 41.46713 -5.29023 31395 ft 528 kts 102°
2026-05-07 17:53 41.45873 -5.24317 30652 ft 526 kts 101°
2026-05-07 17:53 41.45028 -5.19620 29881 ft 524 kts 101°
2026-05-07 17:54 41.44183 -5.14923 29076 ft 524 kts 101°
2026-05-07 17:54 41.43337 -5.10231 28329 ft 521 kts 101°
2026-05-07 17:54 41.42493 -5.05567 27594 ft 518 kts 102°
2026-05-07 17:54 41.41650 -5.00920 26818 ft 516 kts 102°
2026-05-07 17:55 41.40808 -4.96297 26035 ft 512 kts 102°
2026-05-07 17:55 41.39975 -4.91730 25282 ft 509 kts 102°
2026-05-07 17:55 41.39156 -4.87241 24484 ft 506 kts 102°
2026-05-07 17:55 41.38331 -4.82727 23942 ft 496 kts 102°
2026-05-07 17:56 41.37518 -4.78305 23471 ft 486 kts 102°
2026-05-07 17:56 41.36686 -4.74009 22999 ft 477 kts 107°
2026-05-07 17:56 41.35380 -4.70008 22516 ft 468 kts 119°
2026-05-07 17:56 41.33519 -4.66533 22066 ft 459 kts 132°
2026-05-07 17:57 41.31149 -4.63674 21598 ft 465 kts 144°
2026-05-07 17:57 41.29357 -4.62166 21291 ft 464 kts 151°
2026-05-07 17:57 41.25539 -4.59540 20664 ft 459 kts 154°
2026-05-07 17:57 41.22730 -4.57710 20203 ft 455 kts 155°
2026-05-07 17:58 41.19906 -4.55881 19743 ft 451 kts 155°
2026-05-07 17:58 41.17110 -4.54080 19233 ft 444 kts 155°
2026-05-07 17:58 41.14348 -4.52302 18594 ft 439 kts 155°
2026-05-07 17:58 41.11626 -4.50561 17961 ft 433 kts 155°
2026-05-07 17:59 41.08916 -4.48828 17332 ft 428 kts 155°
2026-05-07 17:59 41.06244 -4.47119 16697 ft 423 kts 155°
2026-05-07 17:59 41.03620 -4.45443 16061 ft 419 kts 154°
2026-05-07 17:59 41.01118 -4.43522 15420 ft 415 kts 147°
2026-05-07 18:00 40.98760 -4.41377 14837 ft 411 kts 145°
2026-05-07 18:00 40.96446 -4.39213 14196 ft 407 kts 145°
2026-05-07 18:00 40.94146 -4.37074 13564 ft 403 kts 146°
2026-05-07 18:00 40.91864 -4.34976 12939 ft 399 kts 146°
2026-05-07 18:01 40.89588 -4.32898 12275 ft 397 kts 146°
2026-05-07 18:01 40.87323 -4.30844 11608 ft 395 kts 147°
2026-05-07 18:01 40.85075 -4.28812 10954 ft 393 kts 147°
2026-05-07 18:01 40.82832 -4.26792 10348 ft 389 kts 147°
2026-05-07 18:02 40.78504 -4.22900 9980 ft 359 kts 146°
2026-05-07 18:02 40.76493 -4.21093 9978 ft 341 kts 147°
2026-05-07 18:02 40.74583 -4.19380 9976 ft 324 kts 147°
2026-05-07 18:03 40.72765 -4.17749 9974 ft 307 kts 147°
2026-05-07 18:03 40.71064 -4.16224 9972 ft 292 kts 147°
2026-05-07 18:03 40.69377 -4.14712 9978 ft 291 kts 147°
2026-05-07 18:03 40.67669 -4.13187 9990 ft 309 kts 147°
2026-05-07 18:04 40.65850 -4.11570 9989 ft 323 kts 147°
2026-05-07 18:04 40.63986 -4.09909 9985 ft 325 kts 147°
2026-05-07 18:04 40.62104 -4.08230 9983 ft 326 kts 147°
2026-05-07 18:04 40.60221 -4.06551 9983 ft 326 kts 147°
2026-05-07 18:05 40.58360 -4.04893 9980 ft 326 kts 147°
2026-05-07 18:05 40.56485 -4.03225 9988 ft 326 kts 147°
2026-05-07 18:05 40.54604 -4.01554 9975 ft 326 kts 147°
2026-05-07 18:05 40.52715 -3.99874 9970 ft 327 kts 147°
2026-05-07 18:06 40.50829 -3.98201 9970 ft 327 kts 147°
2026-05-07 18:06 40.48946 -3.96528 9972 ft 327 kts 147°
2026-05-07 18:06 40.47060 -3.94852 9970 ft 327 kts 146°
2026-05-07 18:06 40.45374 -3.92868 9863 ft 328 kts 131°
2026-05-07 18:07 40.43964 -3.90525 9742 ft 328 kts 127°
2026-05-07 18:07 40.42610 -3.88139 9621 ft 327 kts 127°
2026-05-07 18:07 40.41228 -3.85740 9502 ft 326 kts 128°
2026-05-07 18:07 40.39847 -3.83399 9379 ft 325 kts 128°
2026-05-07 18:08 40.38456 -3.81080 9241 ft 322 kts 129°
2026-05-07 18:08 40.37089 -3.78828 9052 ft 312 kts 129°
2026-05-07 18:08 40.35745 -3.76626 8930 ft 311 kts 130°
2026-05-07 18:08 40.34390 -3.74417 8807 ft 311 kts 129°
2026-05-07 18:09 40.33026 -3.72203 8665 ft 310 kts 129°
2026-05-07 18:09 40.31668 -3.70000 8491 ft 309 kts 129°
2026-05-07 18:09 40.30333 -3.67836 8298 ft 308 kts 129°
2026-05-07 18:09 40.28993 -3.65663 8044 ft 307 kts 129°
2026-05-07 18:10 40.27643 -3.63470 7763 ft 306 kts 129°
2026-05-07 18:10 40.26317 -3.61320 7503 ft 304 kts 129°
2026-05-07 18:10 40.24997 -3.59183 7243 ft 301 kts 129°
2026-05-07 18:10 40.23690 -3.57070 6976 ft 298 kts 129°
2026-05-07 18:11 40.22397 -3.54979 6674 ft 293 kts 129°
2026-05-07 18:11 40.21548 -3.53610 6529 ft 287 kts 129°
2026-05-07 18:11 40.19931 -3.51000 6358 ft 271 kts 129°
2026-05-07 18:11 40.18772 -3.49132 6252 ft 259 kts 129°
2026-05-07 18:12 40.17690 -3.47319 6102 ft 249 kts 121°
2026-05-07 18:12 40.17238 -3.45214 5846 ft 244 kts 84°
2026-05-07 18:12 40.17881 -3.43154 5555 ft 255 kts 47°
2026-05-07 18:12 40.19350 -3.41832 5263 ft 258 kts 27°
2026-05-07 18:13 40.20949 -3.40775 4931 ft 258 kts 26°
2026-05-07 18:13 40.22586 -3.39816 4589 ft 257 kts 25°
2026-05-07 18:13 40.24188 -3.38828 4257 ft 255 kts 27°
2026-05-07 18:13 40.25822 -3.37967 3973 ft 253 kts 10°
2026-05-07 18:14 40.27519 -3.38066 3971 ft 238 kts 349°
2026-05-07 18:14 40.29086 -3.38613 3967 ft 231 kts 340°
2026-05-07 18:14 40.30532 -3.39520 3975 ft 232 kts 329°
2026-05-07 18:14 40.31885 -3.40714 3978 ft 232 kts 324°
2026-05-07 18:15 40.33164 -3.41982 3978 ft 232 kts 322°
2026-05-07 18:15 40.34445 -3.43302 3972 ft 232 kts 322°
2026-05-07 18:15 40.35713 -3.44609 3972 ft 233 kts 322°
2026-05-07 18:15 40.36987 -3.45914 3970 ft 232 kts 322°
2026-05-07 18:16 40.38239 -3.47189 3933 ft 223 kts 322°
2026-05-07 18:16 40.39432 -3.48403 3666 ft 211 kts 322°
2026-05-07 18:16 40.40563 -3.49553 3367 ft 203 kts 322°
2026-05-07 18:16 40.41656 -3.50666 3117 ft 191 kts 323°
2026-05-07 18:17 40.42680 -3.51707 2858 ft 180 kts 323°
2026-05-07 18:17 40.43636 -3.52678 2615 ft 169 kts 323°
2026-05-07 18:17 40.44539 -3.53596 2411 ft 159 kts 323°
2026-05-07 18:17 40.45384 -3.54454 2193 ft 148 kts 323°
2026-05-07 18:18 40.46189 -3.55272 2021 ft 147 kts 323°
2026-05-07 18:18 40.46984 -3.56071 1964 ft 134 kts 322°
2026-05-07 18:18 40.47608 -3.56708 1979 ft 89 kts 320°
2026-05-07 18:18 40.47769 -3.56955 1988 ft 21 kts 289°
2026-05-07 18:19 40.47803 -3.57056 1992 ft 0 kts 284°
2026-05-07 18:19 40.47803 -3.57055 1992 ft 0 kts 284°
2026-05-07 18:20 40.47803 -3.57063 1992 ft 4 kts 272°
2026-05-07 18:20 40.47800 -3.57094 1993 ft 2 kts 244°
2026-05-07 18:20 40.47792 -3.57109 1994 ft 2 kts 225°
2026-05-07 18:20 40.47777 -3.57121 1995 ft 5 kts 201°
2026-05-07 18:21 40.47709 -3.57093 1995 ft 14 kts 150°
2026-05-07 18:21 40.47661 -3.57041 1994 ft 10 kts 139°
2026-05-07 18:21 40.47621 -3.56996 1992 ft 11 kts 139°
2026-05-07 18:21 40.47530 -3.56899 1989 ft 19 kts 142°
2026-05-07 18:22 40.47430 -3.56798 1985 ft 8 kts 141°
2026-05-07 18:22 40.47398 -3.56764 1985 ft 9 kts 141°
2026-05-07 18:22 40.47317 -3.56680 1983 ft 11 kts 141°
2026-05-07 18:22 40.47247 -3.56608 1981 ft 13 kts 141°
2026-05-07 18:23 40.47161 -3.56527 1978 ft 16 kts 147°
2026-05-07 18:23 40.47051 -3.56466 1977 ft 17 kts 168°
2026-05-07 18:23 40.46929 -3.56458 1977 ft 17 kts 183°
2026-05-07 18:23 40.46811 -3.56469 1978 ft 16 kts 183°
2026-05-07 18:24 40.46696 -3.56477 1978 ft 16 kts 183°
2026-05-07 18:24 40.46582 -3.56486 1979 ft 16 kts 183°
2026-05-07 18:24 40.46470 -3.56494 1980 ft 15 kts 183°
2026-05-07 18:24 40.46363 -3.56505 1980 ft 15 kts 185°
2026-05-07 18:25 40.46251 -3.56514 1979 ft 16 kts 182°
2026-05-07 18:25 40.46131 -3.56519 1977 ft 17 kts 181°
2026-05-07 18:25 40.46010 -3.56531 1977 ft 17 kts 185°
2026-05-07 18:25 40.45886 -3.56543 1975 ft 14 kts 182°
2026-05-07 18:26 40.45812 -3.56596 1975 ft 12 kts 257°
2026-05-07 18:26 40.45805 -3.56706 1977 ft 11 kts 268°
2026-05-07 18:26 40.45797 -3.56805 1979 ft 10 kts 245°
2026-05-07 18:26 40.45751 -3.56878 1980 ft 10 kts 224°
2026-05-07 18:27 40.45700 -3.56945 1982 ft 10 kts 224°
2026-05-07 18:27 40.45646 -3.57015 1983 ft 11 kts 225°
2026-05-07 18:27 40.45599 -3.57083 1985 ft 7 kts 250°
2026-05-07 18:27 40.45614 -3.57149 1988 ft 9 kts 310°
2026-05-07 18:28 40.45669 -3.57226 1991 ft 14 kts 314°
2026-05-07 18:28 40.45750 -3.57332 1995 ft 18 kts 315°
2026-05-07 18:28 40.45835 -3.57442 1998 ft 14 kts 315°
2026-05-07 18:28 40.45893 -3.57496 2001 ft 8 kts 359°
2026-05-07 18:29 40.45947 -3.57474 2001 ft 6 kts 350°
2026-05-07 18:29 40.45977 -3.57500 2002 ft 3 kts 316°
2026-05-07 18:29 40.45991 -3.57519 2003 ft 3 kts 316°
2026-05-07 18:29 40.46008 -3.57540 2003 ft 2 kts 314°
2026-05-07 18:30 40.46010 -3.57543 2003 ft 0 kts 314°